Regional Weather Roundup
Issued by NWS

Home | Current Version | Previous Version | Graphics & Text | Print | Product List | Glossary On
Versions: 1 2 3 4 5 6 7 8 9 10 11 12 13 14 15 16 17 18 19 20 21 22 23 24 25 26 27 28 29 30 31 32 33 34 35 36 37 38 39 40 41 42 43 44 45 46 47 48 49 50
000
ASUS45 KSLC 071810
RWRUT

UTAH REGIONAL WEATHER ROUNDUP
NATIONAL WEATHER SERVICE SALT LAKE CITY UT
1100 AM MST WED DEC 07 2016

UTZ001>011-023>025-071900-

NORTHERN UTAH

CITY           SKY/WX    TMP DP  RH WIND       PRES   REMARKS
BRIGHAM CITY     N/A     25   8  48 CALM      30.29S
HILL AFB       MOSUNNY   24   8  51 E6        30.25R WCI  17
LOGAN          SUNNY     22  11  62 SE3       30.28R
OGDEN          SUNNY     25  11  55 CALM      30.26R
SALT LAKE CITY MOSUNNY   26  14  60 CALM      30.28R
TOOELE VALLEY  CLOUDY    27  16  63 CALM      30.29R
WENDOVER       SUNNY     25   7  46 E7        30.30S WCI  17
HEBER CITY     SUNNY     21   9  58 CALM      30.18R
WEST JORDAN    PTSUNNY   23  18  81 NW5       30.27R WCI  17

$$

UTZ011>015-024>027-071900-

CENTRAL/NORTHEAST UTAH

CITY           SKY/WX    TMP DP  RH WIND       PRES   REMARKS
PROVO AIRPORT  SUNNY     25  15  66 N5        30.28R WCI  19
MOAB/CANYONLAN SUNNY     33   6  32 NW8G18    30.17R WCI  26
DELTA          CLOUDY    27   9  46 N7        30.25R WCI  19
PRICE          MOSUNNY   25   4  40 VRB5      30.14R WCI  19
ROOSEVELT      SUNNY     28   5  37 E6        30.19R WCI  22
VERNAL         SUNNY     25   8  48 SE9       30.16R WCI  15

$$

UTZ013>016-019>022-027-071900-

SOUTHERN UTAH

CITY           SKY/WX    TMP DP  RH WIND       PRES   REMARKS
BRYCE CANYON   SUNNY     21   6  52 NE10      30.09R WCI  10
CEDAR CITY     SUNNY     30  10  43 NE15      30.14R WCI  19
MILFORD        SUNNY     27  13  55 N17       30.21R WCI  14
ST GEORGE      CLEAR     39  10  30 CALM      30.20S
HANKSVILLE     SUNNY     34   7  32 NW8       30.22R WCI  27
KANAB          SUNNY     37   9  30 E8        30.17R WCI  31
BLANDING       SUNNY     32   4  31 NW13      30.18S WCI  22

$$

REGIONAL REPORTS     COLORADO/ARIZONA

CITY           SKY/WX    TMP DP  RH WIND       PRES   REMARKS
CRAIG, CO      PTSUNNY   18   7  62 CALM      30.14R
GRAND JUNCTION SUNNY     28  21  75 SE7       30.16R WCI  21
RIFLE, CO      MOSUNNY   25  11  55 W6        30.14R WCI  18
MONTROSE, CO   SUNNY     27  14  58 CALM      30.16R
CORTEZ, CO     SUNNY     33   3  28 N12       30.10S WCI  24
COLORADO CITY    N/A     39  10  30 CALM      30.15S
PAGE, AZ       SUNNY     41   5  22 NW6       30.13R
GRAND CANYON   SUNNY     37  24  59 S5        30.09R WCI  33
KINGMAN, AZ    MOSUNNY   48  14  25 N9        30.11S
FLAGSTAFF, AZ  MOSUNNY   36  25  64 SW6       30.08R WCI  31

$$

REGIONAL REPORTS    NEVADA/IDAHO/WYOMING

CITY           SKY/WX    TMP DP  RH WIND       PRES   REMARKS
LAS VEGAS, NV  PTSUNNY   50   7  17 N9        30.19R
ELY, NY        SUNNY     20  11  68 N8        30.17S WCI  10
ELKO, NV       SUNNY     21   6  52 CALM      30.24R
POCATELLO, ID  LGT SNOW  18  14  84 CALM      30.30R FOG
BURLEY, ID     CLOUDY    19  14  81 W8        30.30R WCI   9
FORT BRIDGER,    N/A     13   5  68 W8        30.16R WCI   2
EVANSTON, WY   MOSUNNY   11   4  73 CALM      30.12R
ROCK SPRINGS,  SUNNY      6   0  76 E3        30.13R

$$



USA.gov is the U.S. government's official web portal to all federal, state and local government web resources and services.